Regional Weather Roundup
Issued by NWS Raleigh/Durham, NC

Home | Current Version | Previous Version | Text Only | Print | Product List | Glossary On
Versions: 1 2 3 4 5 6 7 8 9 10 11 12 13 14 15 16 17 18 19 20 21 22 23 24 25 26 27 28 29 30 31 32 33 34 35 36 37 38 39 40 41 42 43 44 45 46 47 48 49 50
000
ASUS42 KRAH 281410
RWRRAH
NORTH CAROLINA WEATHER ROUNDUP
NATIONAL WEATHER SERVICE RALEIGH NC
900 AM EST SUN DEC 28 2014

NOTE: "FAIR" INDICATES FEW OR NO CLOUDS BELOW 12,000 FEET WITH NO
SIGNIFICANT WEATHER AND/OR OBSTRUCTIONS TO VISIBILITY.

NCZ001-053-055-056-065-067-281500-
WESTERN NORTH CAROLINA

CITY           SKY/WX    TMP DP  RH WIND       PRES   REMARKS
ASHEVILLE      CLOUDY    56  52  86 S14       30.07R
JEFFERSON      CLOUDY    53  38  57 CALM      30.04R
MORGANTON      DRIZZLE   47  41  80 CALM      30.10R
HICKORY        CLOUDY    51  46  83 S7        30.05S
RUTHERFORDTON  LGT RAIN  51  50  95 S8        30.08S
MOUNT AIRY     CLOUDY    48  42  79 CALM      30.06R
BOONE          PTSUNNY   54  43  65 W5        30.06R
$$

NCZ021-022-025-041-071-084-088-281500-
CENTRAL NORTH CAROLINA

CITY           SKY/WX    TMP DP  RH WIND       PRES   REMARKS
CHARLOTTE      CLOUDY    53  50  89 SW12      30.09R
GREENSBORO     CLOUDY    53  45  74 SW12      30.04R
WINSTON-SALEM  CLOUDY    53  43  68 SW7       30.07S
RALEIGH-DURHAM PTSUNNY   56  49  77 SW15      30.08R
FORT BRAGG     PTSUNNY   55  52  88 SW5       30.10S
FAYETTEVILLE   PTSUNNY   55  53  93 W7        30.11R
BURLINGTON     CLOUDY    57  47  69 SW12      30.05S
LAURINBURG     LGT RAIN  55  54  96 SW9       30.10F
$$

NCZ011-015-027-028-043-044-047-080-103-281500-
NORTHEASTERN NORTH CAROLINA

CITY           SKY/WX    TMP DP  RH WIND       PRES   REMARKS
ROCKY MT-WILSO CLOUDY    56  50  80 SW9       30.08S
GREENVILLE     DRIZZLE   55  52  88 SW5       30.10S
WASHINGTON     PTSUNNY   56  51  84 SW5       30.09S
ELIZABETH CITY CLOUDY    59  51  75 S8        30.07F
MANTEO         CLOUDY    54  50  87 S7        30.09S
CAPE HATTERAS  PTSUNNY   59  56  89 SW7       30.11S
$$

NCZ078-087-090-091-093-098-101-281500-
SOUTHEASTERN NORTH CAROLINA

CITY           SKY/WX    TMP DP  RH WIND       PRES   REMARKS
LUMBERTON      CLOUDY    54  52  93 S3        30.10F
GOLDSBORO      PTSUNNY   56  56  99 SW8       30.09R
KINSTON        LGT RAIN  57  52  82 SW8       30.11S
KENANSVILLE    CLOUDY    53  49  85 CALM      30.11F
NEW BERN       MOSUNNY   59  52  77 SW8       30.12S
CHERRY POINT   PTSUNNY   57  51  80 SW6       30.13S
BEAUFORT       MOSUNNY   62  58  86 SW7       30.12S
JACKSONVILLE   PTSUNNY   57  50  77 SW3       30.12F
WILMINGTON     PTSUNNY   57  49  74 S3        30.14S
$$




USA.gov is the U.S. government's official web portal to all federal, state and local government web resources and services.